sat.trackr.live / text

‹ back to catalog

YAOGAN-36 02C

NORAD 54045 · 2022-133D

PAYLOAD ACTIVE UNKNOWN

§ Identity

Operator
Country
PRC
Launch date
2022-10-14
Launch site
XICLF
Launch vehicle
Mass (kg)
RCS (m²)

External: N2YO · Heavens-Above · Gunter

§ Orbital elements

Epoch: 2026-09-20T22:05:34.744992Z

Period
92.49 min
Inclination
34.9863°
Eccentricity
0.0006677
Mean motion
15.56918325 rev/d
Perigee alt
392.1 km
Apogee alt
401.1 km
Semi-major
6,774.7 km
B*
6.3794e-4
RAAN
163.7375°
Arg perigee
1.3821°
Mean anomaly
358.6921°
Rev number
22,011

§ Raw data

YAOGAN-36 02C1 54045U 22133D   26263.92054103  .00047729  00000+0  63794-3 0  99922 54045  34.9863 163.7375 0006677   1.3821 358.6921 15.56918325220111

JSON: /api/v1/satellites/54045 · /tle

For live sub-satellite position, see the globe view (requires WebGL).

§ Visibility from observer

Set your observer location to see the next 7 days of passes ≥ 10°. The values pass through the URL so the page stays shareable.

No JS? Fill the form by hand. The geolocation button needs JavaScript.